Location: *
(57.8420°S, 159.8600°W)
Time: 03:29:49
(UTC+00:00)

COSMOS 2428 - Pass Details

Date: 18 May 2021
Orbit: 844 x 859 km, 70.9° (Epoch: 20 June)

Event Time Altitude Azimuth Distance (km) Brightness Sun altitude
Rises 04:55:28 0° 310° (NW) 3,426 6.8 -19.1°
Reaches altitude 10° 04:57:57 10° 306° (NW) 2,494 6.0 -19.4°
Maximum altitude 05:03:38 61° 226° (SW) 976 3.1 -20.2°
Enters shadow 05:07:36 20° 150° (SSE) 1,879 4.2 -20.7°
